Location: *
(55.5817°S, 142.4781°W)
Time: 06:42:46
(UTC+00:00)

Cosmos 2278 Rocket - Pass Details

Date: 29 April 2025
Orbit: 840 x 845 km, 71.0° (Epoch: 23 May)

Event Time Altitude Azimuth Distance (km) Brightness Sun altitude
Exits shadow 12:50:56 19° 188° (S) 1,956 4.2 -33.6°
Drops below altitude 10° 12:54:33 10° 149° (SSE) 2,504 5.2 -33.1°
Sets 12:57:48 0° 130° (SE) 3,439 6.4 -32.7°
